Simultaneous Nadir Overpasses (SNOs) Predictions

Prediction of SNOs between GOES-14 and AQUA Satellite Orbit:

Table of predicted SNOs for the next 14.0 days since TLE Epoch: 3/18/2022
Index Date Time (GOES-14) GOES-14 Lat,Lon AQUA Lat,Lon Distance(km) Time Diff (sec)
1 03/19/2022 08:38:05 0.10,-104.56 0.32,-105.54 111.69 80
2 03/21/2022 08:28:27 0.10,-104.56 -0.34,-102.55 228.69 80
3 03/21/2022 20:49:49 -0.10,-104.46 -0.79,-107.73 371.59 80
4 03/23/2022 20:37:30 -0.11,-104.45 -0.17,-104.73 32.06 80
5 03/25/2022 20:22:31 -0.11,-104.44 0.46,-101.73 307.21 80
6 03/26/2022 08:43:45 0.11,-104.52 0.60,-106.89 268.69 80
7 03/28/2022 08:34:06 0.12,-104.52 -0.05,-103.89 71.52 80
8 03/30/2022 08:21:46 0.12,-104.52 -0.65,-100.89 412.34 80
9 03/30/2022 20:43:08 -0.11,-104.45 -0.46,-106.07 184.24 80
